User: anonymous
Location: Churchill
(58.7670°N, 94.1670°W)
Time: 08:57:12
(UTC-05:00)
Language:

Cosmos 1315 Rocket - Orbit

View from above orbital plane
View from above orbital plane
View from above satellite
View from above satellite

Ground track
Ground track

The orbit data is extracted from the following two-line orbital elements,

1 12904U 81103B   14113.13988257  .00002487  00000-0  18508-3 0  4746
2 12904 081.1771 147.9869 0028836 245.4196 114.4020 15.02306066319784
Epoch (UTC): 23 April 2014 03:21:25
Eccentricity: 0.0028836
inclination: 81.1771°
perigee height: 540 km
apogee height: 580 km
right ascension of ascending node: 147.9869°
argument of perigee: 245.4196°
revolutions per day: 15.02306066
mean anomaly at epoch: 114.4020°
orbit number at epoch: 31978

The dashed part of the orbit path shows where the satellite is in the earth's shadow,  

DLR